This is the latest recevied weather packets stored in our database for station/object SR4DIG-13. If no packets are shown the sender has not sent any weather packets the latest 10 day(s).
| Time | Temp. | Humidity | Pressure | Rain* | Wind** | Luminosity | Snow |
|---|---|---|---|---|---|---|---|
| 1777556680 | 11.67° C | 39% | 1026.2 hPa | 0 mm | - | - | - |
| 1777556099 | 11.67° C | 39% | 1026.3 hPa | 0 mm | - | - | - |
| 1777555497 | 11.67° C | 39% | 1026.3 hPa | 0 mm | - | - | - |
| 1777555196 | 11.67° C | 39% | 1026.5 hPa | 0 mm | - | - | - |
| 1777554895 | 11.67° C | 39% | 1026.5 hPa | 0 mm | - | - | - |
| 1777554293 | 12.22° C | 38% | 1026.6 hPa | 0 mm | - | - | - |
| 1777553992 | 12.22° C | 38% | 1026.5 hPa | 0 mm | - | - | - |
| 1777553391 | 12.22° C | 38% | 1026.5 hPa | 0 mm | - | - | - |
| 1777552463 | 12.78° C | 38% | 1026.8 hPa | 0 mm | - | - | - |
| 1777552162 | 12.78° C | 38% | 1026.8 hPa | 0 mm | - | - | - |
| 1777551861 | 12.78° C | 38% | 1026.9 hPa | 0 mm | - | - | - |
| 1777551560 | 12.22° C | 38% | 1026.9 hPa | 0 mm | - | - | - |
| 1777551260 | 12.22° C | 38% | 1027 hPa | 0 mm | - | - | - |
| 1777550959 | 12.22° C | 38% | 1026.9 hPa | 0 mm | - | - | - |
| 1777550357 | 11.67° C | 38% | 1027.2 hPa | 0 mm | - | - | - |
| 1777550056 | 11.67° C | 38% | 1027.2 hPa | 0 mm | - | - | - |
| 1777549755 | 12.22° C | 37% | 1027.2 hPa | 0 mm | - | - | - |
| 1777548530 | 11.67° C | 38% | 1027.2 hPa | 0 mm | - | - | - |
| 1777548230 | 12.22° C | 38% | 1027.4 hPa | 0 mm | - | - | - |
| 1777547929 | 12.22° C | 38% | 1027.3 hPa | 0 mm | - | - | - |
| 1777547327 | 12.22° C | 37% | 1027.4 hPa | 0 mm | - | - | - |
| 1777546424 | 12.78° C | 37% | 1027.5 hPa | 0 mm | - | - | - |
| 1777545823 | 11.67° C | 38% | 1027.5 hPa | 0 mm | - | - | - |
| 1777544937 | 11.67° C | 38% | 1027.7 hPa | 0 mm | - | - | - |
| 1777544636 | 11.67° C | 39% | 1027.6 hPa | 0 mm | - | - | - |
* Rain since midnight (hover to see other rain measurements)
** Current wind speed in m/s (hover to see current wind gust speed)